Terminal Aerodrome Forecast
Issued by NWS

Home | Current Version | Previous Version | Text Only | Print | Product List | Glossary On
Versions: 1 2 3 4 5 6 7 8 9 10 11 12 13 14 15 16 17 18
000
FTUS43 KICT 251100
TAFHUT
TAF
KHUT 251120Z 2512/2612 19012KT P6SM SCT250
     FM251500 21022G32KT P6SM SCT250
     FM260100 18014KT P6SM SCT150
     FM260600 18015KT P6SM BKN120=

USA.gov is the U.S. government's official web portal to all federal, state and local government web resources and services.